Stations météo

Publicité
Alanya, Turquie (17310): Température de l'air & dewpoint: 14.06.2018 10:00:00 - 20.06.2018 10:00:00 (EEST)Alanya, Turquie (17310): Vitesse du vent: 14.06.2018 10:00:00 - 20.06.2018 10:00:00 (EEST)Alanya, Turquie (17310): Direction du vent: 14.06.2018 10:00:00 - 20.06.2018 10:00:00 (EEST)Alanya, Turquie (17310): reduced air pressure: 14.06.2018 10:00:00 - 20.06.2018 10:00:00 (EEST)Alanya, Turquie (17310): visibility: 14.06.2018 10:00:00 - 20.06.2018 10:00:00 (EEST)
Date & Time tt [°C] td [°C] ff [km/h] ff [knt] dd ppp [hPa] vv [km]
20.06.2018 10:00:00 28,9 21,5 5 3 S 1012,2 20
20.06.2018 09:00:00 28,5 20,6 4 2 SSW 1011,9 20
20.06.2018 08:00:00 - - - - - - -
20.06.2018 07:00:00 - - - - - - -
20.06.2018 06:00:00 23,0 16,4 4 2 ENE 1010,3 20
20.06.2018 05:00:00 - - - - - - -
20.06.2018 04:00:00 - - - - - - -
20.06.2018 03:00:00 23,4 17,0 2 1 NE 1009,9 20
20.06.2018 02:00:00 - - - - - - -
20.06.2018 01:00:00 - - - - - - -
20.06.2018 00:00:00 24,4 18,2 4 2 E 1010,1 20
19.06.2018 23:00:00 - - - - - - -
19.06.2018 22:00:00 - - - - - - -
19.06.2018 21:00:00 25,8 19,3 2 1 NNE 1010,0 20
19.06.2018 20:00:00 26,5 19,2 4 2 W 1009,8 20
19.06.2018 19:00:00 27,5 20,4 2 1 SW 1009,5 20
19.06.2018 18:00:00 29,8 21,3 8 4 SW 1009,3 20
19.06.2018 17:00:00 29,8 21,3 9 5 SSW 1009,3 20
19.06.2018 16:00:00 30,2 21,4 9 5 SSW 1009,3 20
19.06.2018 15:00:00 30,2 20,2 8 4 SSW 1009,3 20
19.06.2018 14:00:00 30,1 20,7 9 5 SSW 1009,4 20
19.06.2018 13:00:00 29,2 21,3 9 5 SSW 1009,5 20
19.06.2018 12:00:00 28,8 20,6 11 6 SSW 1009,6 20
19.06.2018 11:00:00 29,7 21,5 9 5 S 1008,9 20
19.06.2018 10:00:00 29,3 21,1 8 4 S 1008,5 20
19.06.2018 09:00:00 28,9 19,9 4 2 E 1008,4 20
19.06.2018 08:00:00 - - - - - - -
19.06.2018 07:00:00 - - - - - - -
19.06.2018 06:00:00 24,0 19,9 4 2 ENE 1007,8 20
19.06.2018 05:00:00 - - - - - - -
19.06.2018 04:00:00 - - - - - - -
19.06.2018 03:00:00 24,9 19,8 4 2 NNE 1007,4 20
19.06.2018 02:00:00 - - - - - - -
19.06.2018 01:00:00 - - - - - - -
19.06.2018 00:00:00 24,9 18,9 2 1 NE 1007,2 20
18.06.2018 23:00:00 - - - - - - -
18.06.2018 22:00:00 - - - - - - -
18.06.2018 21:00:00 26,3 20,0 5 3 W 1007,1 20
18.06.2018 20:00:00 26,8 20,0 4 2 W 1006,6 20
18.06.2018 19:00:00 28,2 21,1 5 3 W 1006,7 20
18.06.2018 18:00:00 30,1 21,9 5 3 SW 1006,7 20
18.06.2018 17:00:00 30,7 22,1 5 3 SSW 1006,7 20
18.06.2018 16:00:00 30,6 21,5 9 5 S 1006,5 20
18.06.2018 15:00:00 30,3 20,9 9 5 S 1006,7 20
18.06.2018 14:00:00 30,2 22,0 9 5 S 1006,7 20
18.06.2018 13:00:00 29,9 21,7 9 5 S 1006,7 20
18.06.2018 12:00:00 29,6 21,9 11 6 S 1006,8 20
18.06.2018 11:00:00 29,0 21,3 11 6 S 1006,5 20
18.06.2018 10:00:00 29,9 19,0 4 2 SE 1006,7 20
18.06.2018 09:00:00 28,7 17,9 4 2 SE 1006,8 20
18.06.2018 08:00:00 - - - - - - -
18.06.2018 07:00:00 - - - - - - -
18.06.2018 06:00:00 22,8 17,1 4 2 ENE 1006,3 20
18.06.2018 05:00:00 - - - - - - -
18.06.2018 04:00:00 - - - - - - -
18.06.2018 03:00:00 23,6 18,1 2 1 ENE 1006,8 20
18.06.2018 02:00:00 - - - - - - -
18.06.2018 01:00:00 - - - - - - -
18.06.2018 00:00:00 24,5 18,7 2 1 W 1008,1 20
17.06.2018 23:00:00 - - - - - - -
17.06.2018 22:00:00 - - - - - - -
17.06.2018 21:00:00 25,6 19,6 2 1 WNW 1008,2 20
17.06.2018 20:00:00 26,3 19,8 4 2 W 1008,0 20
17.06.2018 19:00:00 27,8 19,9 4 2 W 1008,0 20
17.06.2018 18:00:00 29,9 20,3 4 2 SSW 1007,6 20
17.06.2018 17:00:00 30,1 21,0 5 3 SSW 1008,0 20
17.06.2018 16:00:00 30,2 20,5 5 3 SSW 1008,1 20
17.06.2018 15:00:00 29,8 19,9 8 4 SSW 1008,3 20
17.06.2018 14:00:00 29,5 20,7 8 4 SSW 1008,4 20
17.06.2018 13:00:00 29,1 20,4 8 4 SSW 1008,6 20
17.06.2018 12:00:00 28,5 20,1 8 4 SSW 1008,8 20
17.06.2018 11:00:00 28,3 21,4 8 4 SSW 1008,7 20
17.06.2018 10:00:00 28,2 21,3 4 2 NE 1008,5 20
17.06.2018 09:00:00 24,8 18,8 2 1 N 1008,6 20
17.06.2018 08:00:00 - - - - - - -
17.06.2018 07:00:00 - - - - - - -
17.06.2018 06:00:00 20,7 19,5 15 8 NNE 1007,8 15
17.06.2018 05:00:00 - - - - - - -
17.06.2018 04:00:00 - - - - - - -
17.06.2018 03:00:00 24,1 18,1 4 2 NE 1007,4 20
17.06.2018 02:00:00 - - - - - - -
17.06.2018 01:00:00 - - - - - - -
17.06.2018 00:00:00 24,7 18,5 2 1 ENE 1007,6 20
16.06.2018 23:00:00 - - - - - - -
16.06.2018 22:00:00 - - - - - - -
16.06.2018 21:00:00 23,3 16,9 2 1 ENE 1006,9 20
16.06.2018 20:00:00 24,2 17,5 2 1 NE 1006,6 20
16.06.2018 19:00:00 24,3 16,6 5 3 N 1006,9 20
16.06.2018 18:00:00 21,9 18,9 8 4 NE 1007,8 15
16.06.2018 17:00:00 25,1 18,6 5 3 N 1007,5 20
16.06.2018 16:00:00 26,9 22,6 2 1 E 1008,4 15
16.06.2018 15:00:00 27,3 22,1 4 2 SE 1008,3 15
16.06.2018 14:00:00 28,3 22,2 11 6 S 1008,4 20
16.06.2018 13:00:00 29,8 15,1 5 3 E 1007,4 20
16.06.2018 12:00:00 29,5 18,7 8 4 NE 1006,8 20
16.06.2018 11:00:00 27,7 21,6 8 4 E 1009,2 20
16.06.2018 10:00:00 28,2 21,3 8 4 ENE 1009,8 20
16.06.2018 09:00:00 27,1 21,2 4 2 N 1009,8 20
16.06.2018 08:00:00 - - - - - - -
16.06.2018 07:00:00 - - - - - - -
16.06.2018 06:00:00 24,7 18,7 2 1 N 1007,0 20
16.06.2018 05:00:00 - - - - - - -
16.06.2018 04:00:00 - - - - - - -
16.06.2018 03:00:00 25,5 21,6 2 1 N 1006,9 20
16.06.2018 02:00:00 - - - - - - -
16.06.2018 01:00:00 - - - - - - -
16.06.2018 00:00:00 26,2 20,8 4 2 NE 1007,9 20
15.06.2018 23:00:00 - - - - - - -
15.06.2018 22:00:00 - - - - - - -
15.06.2018 21:00:00 27,5 22,7 4 2 SW 1008,1 20
15.06.2018 20:00:00 28,4 22,9 4 2 W 1008,0 20
15.06.2018 19:00:00 29,4 22,0 4 2 SSW 1007,1 20
15.06.2018 18:00:00 30,2 23,2 8 4 WSW 1007,2 20
15.06.2018 17:00:00 31,1 23,1 5 3 WSW 1007,2 20
15.06.2018 16:00:00 31,7 22,2 5 3 SW 1007,3 20
15.06.2018 15:00:00 31,2 22,9 5 3 SW 1007,2 20
15.06.2018 14:00:00 31,3 22,4 4 2 SW 1007,1 20
15.06.2018 13:00:00 30,7 22,4 5 3 SW 1007,2 20
15.06.2018 12:00:00 30,5 22,0 4 2 SW 1007,3 20
15.06.2018 11:00:00 29,7 22,8 5 3 SW 1007,4 20
15.06.2018 10:00:00 29,8 22,9 5 3 SW 1007,6 20
15.06.2018 09:00:00 29,5 22,8 5 3 S 1007,4 20
15.06.2018 08:00:00 - - - - - - -
15.06.2018 07:00:00 - - - - - - -
15.06.2018 06:00:00 24,2 19,1 4 2 ENE 1005,9 20
15.06.2018 05:00:00 - - - - - - -
15.06.2018 04:00:00 - - - - - - -
15.06.2018 03:00:00 25,0 20,3 2 1 S 1005,9 20
15.06.2018 02:00:00 - - - - - - -
15.06.2018 01:00:00 - - - - - - -
15.06.2018 00:00:00 26,1 21,4 2 1 WNW 1006,1 20
14.06.2018 23:00:00 - - - - - - -
14.06.2018 22:00:00 - - - - - - -
14.06.2018 21:00:00 26,9 22,1 2 1 WSW 1005,9 20
14.06.2018 20:00:00 27,0 22,2 4 2 SSW 1005,1 20
14.06.2018 19:00:00 28,2 22,5 4 2 SSW 1005,2 20
14.06.2018 18:00:00 29,6 22,9 5 3 SSW 1005,5 20
14.06.2018 17:00:00 29,3 22,9 5 3 SSW 1005,4 20
14.06.2018 16:00:00 30,9 23,4 8 4 S 1005,5 20
14.06.2018 15:00:00 29,4 23,0 9 5 S 1005,5 20
14.06.2018 14:00:00 28,9 23,0 8 4 S 1005,4 20
14.06.2018 13:00:00 28,9 23,0 11 6 S 1005,7 20
14.06.2018 12:00:00 28,4 22,7 11 6 S 1005,5 20
14.06.2018 11:00:00 28,5 23,3 9 5 S 1005,1 20
14.06.2018 10:00:00 29,7 23,7 8 4 SSW 1004,6 20

tt = Température de l'air
td = dewpoint
ff = Vitesse du vent
dd = Direction du vent
ppp = reduced air pressure
vv = visibility

stations d'obs. à proximité